Regional Weather Roundup
Issued by NWS

Home | Current Version | Previous Version | Graphics & Text | Print | Product List | Glossary On
Versions: 1 2 3 4 5 6 7 8 9 10 11 12 13 14 15 16 17 18 19 20 21 22 23 24 25 26 27 28 29 30 31 32 33 34 35 36 37 38 39 40 41 42 43 44 45 46 47 48 49 50
125
ASUS43 KBIS 070702
RWRND

NORTH DAKOTA REGIONAL WEATHER ROUNDUP
NATIONAL WEATHER SERVICE BISMARCK ND
100 AM CST WED DEC 07 2016

NOTE: "FAIR" INDICATES FEW OR NO CLOUDS BELOW 12,000 FEET WITH NO
SIGNIFICANT WEATHER AND/OR OBSTRUCTIONS TO VISIBILITY.


NDZ001>003-009>011-017-070800-
NORTHWEST NORTH DAKOTA

CITY           SKY/WX    TMP DP  RH WIND       PRES   REMARKS
WILLISTON      CLOUDY     4  -3  73 NW13      30.20R WCI -13
MINOT AFB      SNOW       7   1  78 NW39G46   29.99F VSB 1/2 WCI -19
$$

NDZ018>021-031>035-040>046-070800-
SOUTHWEST NORTH DAKOTA

CITY           SKY/WX    TMP DP  RH WIND       PRES   REMARKS
BISMARCK       CLOUDY     5   0  79 W23G31    30.08S WCI -17
GARRISON         N/A      5   0  79 NW26G38   30.04R WCI -18
HETTINGER ARPT MOCLDY     0  -7  72 NW28G36   30.11R WCI -25
$$

NDZ004>008-012>016-024-026-027-054-070800-
NORTHEAST NORTH DAKOTA

CITY           SKY/WX    TMP DP  RH WIND       PRES   REMARKS
GRAND FORKS    SNOW      17  12  80 W30G40    29.76R VSB 1/2 WCI  -3
GRND FRKS AFB  LGT SNOW  15  11  82 NW29G36   29.77R WCI  -5
$$

NDZ022-023-025-028>030-036>039-047>053-070800-
SOUTHEAST NORTH DAKOTA

CITY           SKY/WX    TMP DP  RH WIND       PRES   REMARKS
FARGO          LGT SNOW  14   8  77 W32G39    29.83S WCI  -7
JAMESTOWN      CLOUDY     8   4  83 NW28G39   29.91R BLWGSNOWWCI -14
$$





USA.gov is the U.S. government's official web portal to all federal, state and local government web resources and services.